Location: Barcelona
(41.3829°N, 2.1774°E)
Time: 11:14:41
(UTC+00:00)

ISS - Pass Details

Date: 03 May 2025
Orbit: 416 x 419 km, 51.6° (Epoch: 14 May)

Event Time Altitude Azimuth Distance (km) Brightness Sun altitude
Rises 03:21:05 0° 307° (NW) 2,361 -0.1 -14.7°
Reaches altitude 10° 03:23:43 10° 329° (NNW) 1,496 -0.9 -14.3°
Maximum altitude 03:26:00 17° 12° (NNE) 1,144 -0.9 -13.9°
Drops below altitude 10° 03:28:18 10° 55° (NE) 1,495 0.5 -13.6°
Sets 03:30:55 0° 77° (ENE) 2,358 1.4 -13.2°
